VKG580 ENGM-LGSA

Flight info

Callsign VKG580
Flight time 3h 25m
Altitude 31000
Route OKSAT L996 GETPA/N0463F370 L996 KORET/N0461F390 L996 KELIN DCT POKEN DCT DENKO L616 DESEN DCT MAKAL DCT PARAK DCT IRGOR DCT IBISI DCT MAKED UL617 AGISA DCT ATV UP169 MANOK UL612 RUSOS
Aircraft A339/H-SDE1E2E3GHIJ1J3J4J7RWXYZ/LB2D1

Departure

Time 2026-04-30 07:57
Airport Oslo-Gardermoen International Airport (ENGM)

Arrival

Time 2026-04-30 11:23
Airport Chania International Airport (LGSA)
Time Latitude Longitude Altitude Speed Heading
2026-04-30 07:34 60.19453 11.10358 693 ft 0 kts 196°
2026-04-30 07:45 60.19466 11.10366 693 ft 2 kts 196°
2026-04-30 07:45 60.19480 11.10374 693 ft 2 kts 196°
2026-04-30 07:46 60.19495 11.10383 693 ft 2 kts 198°
2026-04-30 07:46 60.19508 11.10396 693 ft 2 kts 220°
2026-04-30 07:46 60.19518 11.10417 693 ft 2 kts 237°
2026-04-30 07:46 60.19524 11.10444 693 ft 2 kts 254°
2026-04-30 07:47 60.19527 11.10473 693 ft 2 kts 272°
2026-04-30 07:47 60.19525 11.10503 693 ft 2 kts 288°
2026-04-30 07:47 60.19520 11.10531 693 ft 2 kts 287°
2026-04-30 07:47 60.19516 11.10560 692 ft 2 kts 285°
2026-04-30 07:48 60.19511 11.10590 692 ft 2 kts 286°
2026-04-30 07:48 60.19507 11.10618 692 ft 2 kts 286°
2026-04-30 07:48 60.19503 11.10648 692 ft 2 kts 286°
2026-04-30 07:48 60.19499 11.10678 692 ft 2 kts 286°
2026-04-30 07:49 60.19495 11.10707 692 ft 2 kts 286°
2026-04-30 07:49 60.19491 11.10734 692 ft 1 kts 286°
2026-04-30 07:49 60.19490 11.10736 692 ft 0 kts 286°
2026-04-30 07:51 60.19491 11.10735 692 ft 0 kts 286°
2026-04-30 07:51 60.19494 11.10713 692 ft 2 kts 286°
2026-04-30 07:51 60.19500 11.10670 692 ft 3 kts 286°
2026-04-30 07:52 60.19509 11.10610 692 ft 5 kts 286°
2026-04-30 07:52 60.19530 11.10548 692 ft 6 kts 324°
2026-04-30 07:52 60.19582 11.10546 691 ft 9 kts 18°
2026-04-30 07:52 60.19651 11.10590 691 ft 11 kts 17°
2026-04-30 07:53 60.19729 11.10637 691 ft 12 kts 15°
2026-04-30 07:53 60.19815 11.10685 691 ft 13 kts 15°
2026-04-30 07:53 60.19900 11.10736 691 ft 10 kts 24°
2026-04-30 07:53 60.19923 11.10866 692 ft 11 kts 96°
2026-04-30 07:54 60.19903 11.11019 692 ft 11 kts 106°
2026-04-30 07:54 60.19878 11.11186 692 ft 13 kts 106°
2026-04-30 07:54 60.19852 11.11366 692 ft 13 kts 105°
2026-04-30 07:54 60.19859 11.11518 692 ft 11 kts 40°
2026-04-30 07:55 60.19938 11.11580 693 ft 12 kts 16°
2026-04-30 07:55 60.20020 11.11628 693 ft 12 kts 16°
2026-04-30 07:55 60.20105 11.11677 694 ft 12 kts 15°
2026-04-30 07:55 60.20166 11.11750 695 ft 10 kts 69°
2026-04-30 07:56 60.20161 11.11902 695 ft 11 kts 103°
2026-04-30 07:56 60.20139 11.12063 695 ft 12 kts 107°
2026-04-30 07:56 60.20094 11.12203 695 ft 12 kts 159°
2026-04-30 07:56 60.19981 11.12173 694 ft 27 kts 195°
2026-04-30 07:57 60.19581 11.11940 690 ft 91 kts 195°
2026-04-30 07:57 60.18793 11.11484 689 ft 143 kts 196°
2026-04-30 07:57 60.17706 11.10860 803 ft 175 kts 195°
2026-04-30 07:57 60.16560 11.10192 1369 ft 174 kts 195°
2026-04-30 07:58 60.15410 11.09534 2012 ft 173 kts 195°
2026-04-30 07:58 60.14248 11.08919 2565 ft 177 kts 188°
2026-04-30 07:58 60.13002 11.09269 2903 ft 196 kts 153°
2026-04-30 07:58 60.11932 11.11097 3241 ft 214 kts 134°
2026-04-30 07:59 60.10880 11.13374 3628 ft 233 kts 133°
2026-04-30 07:59 60.09746 11.15837 4035 ft 251 kts 133°
2026-04-30 07:59 60.08515 11.18479 4483 ft 267 kts 134°
2026-04-30 08:00 60.05954 11.24059 5870 ft 278 kts 130°
2026-04-30 08:00 60.04630 11.26817 6536 ft 281 kts 147°
2026-04-30 08:00 60.02925 11.28618 7204 ft 283 kts 158°
2026-04-30 08:00 60.01100 11.30149 7876 ft 288 kts 158°
2026-04-30 08:01 59.99254 11.31720 8544 ft 292 kts 157°
2026-04-30 08:01 59.97393 11.33390 9198 ft 296 kts 156°
2026-04-30 08:01 59.95555 11.35106 9842 ft 300 kts 155°
2026-04-30 08:01 59.93657 11.36923 10489 ft 304 kts 154°
2026-04-30 08:02 59.89735 11.40743 11230 ft 333 kts 153°
2026-04-30 08:02 59.87597 11.42844 11520 ft 350 kts 153°
2026-04-30 08:03 59.83051 11.47313 12097 ft 382 kts 153°
2026-04-30 08:03 59.78155 11.52115 12981 ft 402 kts 152°
2026-04-30 08:03 59.75668 11.54545 13603 ft 406 kts 152°
2026-04-30 08:04 59.73111 11.57042 14221 ft 410 kts 152°
2026-04-30 08:04 59.70564 11.59528 14843 ft 415 kts 152°
2026-04-30 08:04 59.67953 11.62072 15467 ft 419 kts 152°
2026-04-30 08:04 59.65356 11.64598 16089 ft 422 kts 152°
2026-04-30 08:05 59.62740 11.67138 16702 ft 426 kts 153°
2026-04-30 08:05 59.60061 11.69732 17323 ft 430 kts 153°
2026-04-30 08:05 59.57402 11.72305 17901 ft 434 kts 153°
2026-04-30 08:05 59.54673 11.74939 18492 ft 438 kts 153°
2026-04-30 08:06 59.51963 11.77553 19070 ft 441 kts 153°
2026-04-30 08:06 59.49181 11.80229 19655 ft 445 kts 153°
2026-04-30 08:06 59.46417 11.82884 20221 ft 449 kts 153°
2026-04-30 08:06 59.43630 11.85556 20768 ft 452 kts 153°
2026-04-30 08:07 59.40784 11.88279 21312 ft 455 kts 153°
2026-04-30 08:07 59.37959 11.90974 21823 ft 459 kts 153°
2026-04-30 08:07 59.35026 11.93543 22325 ft 463 kts 160°
2026-04-30 08:07 59.31933 11.95050 22810 ft 467 kts 171°
2026-04-30 08:08 59.28679 11.95439 23289 ft 469 kts 182°
2026-04-30 08:08 59.25440 11.95102 23752 ft 472 kts 185°
2026-04-30 08:08 59.22135 11.94664 24225 ft 475 kts 185°
2026-04-30 08:08 59.18860 11.94234 24694 ft 478 kts 184°
2026-04-30 08:09 59.15564 11.93836 25155 ft 480 kts 184°
2026-04-30 08:09 59.12207 11.93457 25594 ft 483 kts 184°
2026-04-30 08:09 59.08888 11.93099 26017 ft 486 kts 184°
2026-04-30 08:09 59.05495 11.92739 26439 ft 488 kts 184°
2026-04-30 08:10 59.02144 11.92383 26869 ft 490 kts 184°
2026-04-30 08:10 58.98731 11.92016 27282 ft 492 kts 184°
2026-04-30 08:10 58.95347 11.91651 27653 ft 494 kts 184°
2026-04-30 08:10 58.91897 11.91280 28037 ft 496 kts 184°
2026-04-30 08:11 58.88488 11.90915 28498 ft 496 kts 184°
2026-04-30 08:11 58.85039 11.90599 29054 ft 494 kts 181°
2026-04-30 08:11 58.81662 11.90607 29611 ft 491 kts 178°
2026-04-30 08:11 58.78246 11.90990 30139 ft 489 kts 175°
2026-04-30 08:12 58.74920 11.91739 30618 ft 487 kts 171°
2026-04-30 08:12 58.71560 11.92700 31069 ft 486 kts 171°
2026-04-30 08:12 58.68265 11.93612 31467 ft 485 kts 171°
2026-04-30 08:12 58.64913 11.94526 31858 ft 485 kts 172°
2026-04-30 08:13 58.61606 11.95424 32234 ft 485 kts 172°
2026-04-30 08:13 58.58262 11.96325 32599 ft 485 kts 172°
2026-04-30 08:13 58.54961 11.97214 32952 ft 485 kts 172°
2026-04-30 08:13 58.51663 11.98101 33308 ft 484 kts 172°
2026-04-30 08:14 58.48331 11.98996 33689 ft 483 kts 172°
2026-04-30 08:14 58.45036 11.99880 34054 ft 482 kts 171°
2026-04-30 08:14 58.41707 12.00773 34417 ft 482 kts 171°
2026-04-30 08:14 58.38385 12.01664 34735 ft 482 kts 172°
2026-04-30 08:15 58.35100 12.02541 35056 ft 482 kts 171°
2026-04-30 08:15 58.31820 12.03415 35376 ft 482 kts 171°
2026-04-30 08:15 58.28512 12.04469 35706 ft 481 kts 168°
2026-04-30 08:15 58.25286 12.05851 35992 ft 481 kts 164°
2026-04-30 08:16 58.22063 12.07619 36244 ft 482 kts 160°
2026-04-30 08:16 58.18942 12.09720 36487 ft 482 kts 157°
2026-04-30 08:16 58.15844 12.12180 36717 ft 482 kts 154°
2026-04-30 08:16 58.12786 12.14669 36943 ft 484 kts 155°
2026-04-30 08:17 58.09676 12.17179 37189 ft 484 kts 155°
2026-04-30 08:17 58.06609 12.19643 37373 ft 485 kts 155°
2026-04-30 08:17 58.03528 12.22110 37383 ft 486 kts 155°
2026-04-30 08:18 57.97325 12.27054 37392 ft 487 kts 155°
2026-04-30 08:18 57.91106 12.31993 37399 ft 487 kts 155°
2026-04-30 08:19 57.84855 12.36943 37401 ft 487 kts 154°
2026-04-30 08:19 57.78599 12.41877 37485 ft 493 kts 154°
2026-04-30 08:19 57.75467 12.44340 37624 ft 495 kts 154°
2026-04-30 08:20 57.72284 12.46835 37833 ft 495 kts 154°
2026-04-30 08:20 57.69150 12.49290 38072 ft 495 kts 154°
2026-04-30 08:20 57.65971 12.51775 38316 ft 494 kts 154°
2026-04-30 08:20 57.62830 12.54224 38569 ft 493 kts 154°
2026-04-30 08:21 57.59654 12.56697 38783 ft 493 kts 154°
2026-04-30 08:21 57.56522 12.59131 38986 ft 493 kts 154°
2026-04-30 08:21 57.53391 12.61561 39194 ft 492 kts 154°
2026-04-30 08:21 57.50215 12.64020 39383 ft 492 kts 154°
2026-04-30 08:22 57.47087 12.66440 39399 ft 492 kts 155°
2026-04-30 08:22 57.40793 12.71292 39397 ft 493 kts 155°
2026-04-30 08:23 57.34478 12.76140 39397 ft 493 kts 155°
2026-04-30 08:23 57.28169 12.80966 39395 ft 492 kts 155°
2026-04-30 08:24 57.21859 12.85778 39393 ft 492 kts 155°
2026-04-30 08:24 57.15561 12.90560 39395 ft 492 kts 155°
2026-04-30 08:25 57.09250 12.95334 39397 ft 492 kts 155°
2026-04-30 08:25 57.02977 13.00063 39396 ft 492 kts 155°
2026-04-30 08:26 56.96675 13.04793 39408 ft 492 kts 154°
2026-04-30 08:26 56.90363 13.09518 39411 ft 492 kts 155°
2026-04-30 08:27 56.84055 13.14225 39410 ft 493 kts 154°
2026-04-30 08:27 56.77696 13.18948 39407 ft 493 kts 154°
2026-04-30 08:28 56.71376 13.23626 39404 ft 493 kts 154°
2026-04-30 08:28 56.65052 13.28288 39412 ft 493 kts 154°
2026-04-30 08:29 56.58701 13.32952 39414 ft 494 kts 154°
2026-04-30 08:29 56.52351 13.37600 39405 ft 494 kts 154°
2026-04-30 08:30 56.46003 13.42234 39413 ft 495 kts 154°
2026-04-30 08:30 56.39655 13.46847 39411 ft 495 kts 154°
2026-04-30 08:31 56.33273 13.51469 39412 ft 496 kts 154°
2026-04-30 08:31 56.26891 13.56075 39409 ft 496 kts 154°
2026-04-30 08:32 56.20520 13.60655 39415 ft 496 kts 154°
2026-04-30 08:32 56.14151 13.65218 39416 ft 496 kts 155°
2026-04-30 08:33 56.07702 13.69823 39427 ft 497 kts 155°
2026-04-30 08:33 56.01306 13.74370 39421 ft 497 kts 154°
2026-04-30 08:34 55.94951 13.78875 39419 ft 497 kts 154°
2026-04-30 08:34 55.88500 13.83433 39415 ft 498 kts 154°
2026-04-30 08:35 55.82071 13.87958 39420 ft 498 kts 154°
2026-04-30 08:35 55.75686 13.92433 39415 ft 499 kts 154°
2026-04-30 08:36 55.69257 13.96923 39418 ft 498 kts 154°
2026-04-30 08:36 55.62838 14.01392 39421 ft 498 kts 154°
2026-04-30 08:37 55.56411 14.05855 39411 ft 499 kts 154°
2026-04-30 08:37 55.49965 14.10311 39409 ft 499 kts 154°
2026-04-30 08:38 55.43517 14.14754 39415 ft 499 kts 154°
2026-04-30 08:38 55.37075 14.19176 39361 ft 499 kts 154°
2026-04-30 08:39 55.30644 14.23577 39415 ft 499 kts 154°
2026-04-30 08:39 55.24186 14.27978 39420 ft 498 kts 154°
2026-04-30 08:40 55.17749 14.32352 39414 ft 498 kts 154°
2026-04-30 08:40 55.11351 14.36685 39413 ft 497 kts 154°
2026-04-30 08:41 55.04888 14.41049 39412 ft 497 kts 154°
2026-04-30 08:41 54.98495 14.45348 39419 ft 495 kts 154°
2026-04-30 08:42 54.92123 14.49621 39424 ft 495 kts 153°
2026-04-30 08:42 54.85719 14.53903 39419 ft 496 kts 153°
2026-04-30 08:43 54.79289 14.58182 39425 ft 496 kts 153°
2026-04-30 08:43 54.72848 14.62454 39426 ft 496 kts 153°
2026-04-30 08:44 54.66438 14.66695 39433 ft 496 kts 154°
2026-04-30 08:44 54.60033 14.70922 39434 ft 497 kts 154°
2026-04-30 08:45 54.53561 14.75181 39435 ft 498 kts 154°
2026-04-30 08:45 54.47118 14.79405 39440 ft 498 kts 154°
2026-04-30 08:46 54.40681 14.83612 39437 ft 498 kts 154°
2026-04-30 08:46 54.34227 14.87814 39436 ft 498 kts 154°
2026-04-30 08:47 54.27777 14.92001 39439 ft 499 kts 154°
2026-04-30 08:47 54.21301 14.96188 39441 ft 499 kts 154°
2026-04-30 08:48 54.14835 15.00358 39438 ft 499 kts 154°
2026-04-30 08:48 54.08396 15.04498 39434 ft 500 kts 154°
2026-04-30 08:49 54.01907 15.08653 39430 ft 500 kts 154°
2026-04-30 08:49 53.95381 15.12818 39424 ft 501 kts 154°
2026-04-30 08:50 53.88898 15.16940 39418 ft 500 kts 154°
2026-04-30 08:50 53.82413 15.21054 39414 ft 500 kts 154°
2026-04-30 08:51 53.75922 15.25154 39405 ft 501 kts 154°
2026-04-30 08:51 53.69385 15.29272 39415 ft 501 kts 154°
2026-04-30 08:52 53.62890 15.33352 39432 ft 501 kts 154°
2026-04-30 08:52 53.56383 15.37423 39411 ft 501 kts 154°
2026-04-30 08:53 53.49881 15.41479 39441 ft 502 kts 154°
2026-04-30 08:53 53.43368 15.45523 39429 ft 502 kts 154°
2026-04-30 08:54 53.36810 15.49589 39419 ft 502 kts 154°
2026-04-30 08:54 53.30300 15.53611 39422 ft 502 kts 154°
2026-04-30 08:55 53.23763 15.57634 39419 ft 502 kts 154°
2026-04-30 08:55 53.17247 15.61633 39421 ft 502 kts 154°
2026-04-30 08:56 53.10728 15.65620 39418 ft 503 kts 155°
2026-04-30 08:56 53.04213 15.69596 39417 ft 502 kts 155°
2026-04-30 08:57 52.97672 15.73572 39422 ft 501 kts 155°
2026-04-30 08:57 52.91135 15.77534 39403 ft 502 kts 155°
2026-04-30 08:58 52.84615 15.81471 39405 ft 502 kts 155°
2026-04-30 08:58 52.78164 15.85698 39423 ft 500 kts 152°
2026-04-30 08:59 52.71798 15.90156 39421 ft 499 kts 152°
2026-04-30 08:59 52.65419 15.94609 39438 ft 498 kts 151°
2026-04-30 09:00 52.59042 15.99048 39434 ft 499 kts 151°
2026-04-30 09:00 52.52707 16.03445 39418 ft 499 kts 151°
2026-04-30 09:01 52.46290 16.07893 39421 ft 501 kts 151°
2026-04-30 09:01 52.39913 16.12291 39421 ft 501 kts 151°
2026-04-30 09:02 52.30312 16.18884 39418 ft 500 kts 152°
2026-04-30 09:02 52.23938 16.23249 39427 ft 500 kts 152°
2026-04-30 09:03 52.17569 16.27595 39436 ft 499 kts 152°
2026-04-30 09:03 52.11175 16.31945 39441 ft 499 kts 152°
2026-04-30 09:04 52.04776 16.36284 39445 ft 499 kts 152°
2026-04-30 09:04 51.98428 16.40575 39439 ft 499 kts 152°
2026-04-30 09:05 51.92015 16.44896 39442 ft 498 kts 152°
2026-04-30 09:05 51.85642 16.49180 39426 ft 497 kts 152°
2026-04-30 09:06 51.79299 16.53430 39433 ft 498 kts 152°
2026-04-30 09:06 51.72916 16.57694 39442 ft 497 kts 152°
2026-04-30 09:07 51.66532 16.61945 39421 ft 498 kts 152°
2026-04-30 09:07 51.60171 16.66162 39422 ft 498 kts 153°
2026-04-30 09:08 51.53786 16.70388 39427 ft 497 kts 153°
2026-04-30 09:08 51.47420 16.74583 39430 ft 498 kts 153°
2026-04-30 09:09 51.41049 16.78764 39416 ft 498 kts 153°
2026-04-30 09:09 51.34668 16.82942 39439 ft 497 kts 153°
2026-04-30 09:10 51.28271 16.87124 39424 ft 497 kts 153°
2026-04-30 09:10 51.21899 16.91278 39424 ft 497 kts 153°
2026-04-30 09:11 51.15541 16.95408 39425 ft 497 kts 153°
2026-04-30 09:11 51.09131 16.99558 39433 ft 498 kts 153°
2026-04-30 09:12 51.02734 17.03696 39440 ft 498 kts 153°
2026-04-30 09:12 50.96345 17.07811 39428 ft 498 kts 153°
2026-04-30 09:13 50.89972 17.11906 39444 ft 498 kts 153°
2026-04-30 09:13 50.83553 17.16025 39433 ft 497 kts 153°
2026-04-30 09:14 50.77185 17.20084 39415 ft 498 kts 154°
2026-04-30 09:14 50.70798 17.24147 39419 ft 499 kts 154°
2026-04-30 09:15 50.64356 17.28235 39421 ft 498 kts 154°
2026-04-30 09:15 50.57983 17.32266 39426 ft 498 kts 154°
2026-04-30 09:16 50.51545 17.36330 39421 ft 498 kts 154°
2026-04-30 09:16 50.45187 17.40337 39417 ft 498 kts 154°
2026-04-30 09:17 50.38750 17.44374 39411 ft 498 kts 154°
2026-04-30 09:17 50.32329 17.48378 39407 ft 498 kts 154°
2026-04-30 09:18 50.25938 17.52353 39406 ft 498 kts 154°
2026-04-30 09:18 50.19553 17.56462 39393 ft 498 kts 153°
2026-04-30 09:19 50.13197 17.60577 39395 ft 498 kts 153°
2026-04-30 09:19 50.06799 17.64706 39386 ft 498 kts 153°
2026-04-30 09:20 50.00403 17.68808 39399 ft 498 kts 154°
2026-04-30 09:20 49.94018 17.72896 39403 ft 498 kts 154°
2026-04-30 09:21 49.87621 17.76974 39399 ft 499 kts 154°
2026-04-30 09:21 49.81229 17.81041 39403 ft 499 kts 154°
2026-04-30 09:22 49.74871 17.85070 39404 ft 498 kts 154°
2026-04-30 09:22 49.68460 17.89126 39409 ft 498 kts 154°
2026-04-30 09:23 49.62089 17.93144 39415 ft 499 kts 155°
2026-04-30 09:23 49.55660 17.97187 39410 ft 499 kts 155°
2026-04-30 09:24 49.49304 18.01170 39408 ft 498 kts 155°
2026-04-30 09:24 49.42883 18.05188 39393 ft 498 kts 155°
2026-04-30 09:25 49.36503 18.09167 39381 ft 498 kts 155°
2026-04-30 09:25 49.30112 18.13143 39365 ft 498 kts 155°
2026-04-30 09:26 49.23713 18.17121 39354 ft 498 kts 154°
2026-04-30 09:26 49.17393 18.21297 39353 ft 498 kts 153°
2026-04-30 09:27 49.11073 18.25528 39364 ft 499 kts 153°
2026-04-30 09:27 49.04716 18.29756 39376 ft 498 kts 154°
2026-04-30 09:28 48.98403 18.33937 39351 ft 499 kts 154°
2026-04-30 09:28 48.92024 18.38141 39342 ft 499 kts 154°
2026-04-30 09:29 48.85696 18.42299 39357 ft 499 kts 154°
2026-04-30 09:29 48.79329 18.46473 39353 ft 499 kts 154°
2026-04-30 09:30 48.72972 18.50628 39357 ft 499 kts 154°
2026-04-30 09:30 48.66617 18.54771 39346 ft 500 kts 154°
2026-04-30 09:31 48.60280 18.58889 39353 ft 499 kts 154°
2026-04-30 09:31 48.53907 18.63021 39334 ft 499 kts 154°
2026-04-30 09:32 48.47554 18.67130 39333 ft 500 kts 155°
2026-04-30 09:32 48.41186 18.71236 39339 ft 500 kts 155°
2026-04-30 09:33 48.34806 18.75338 39350 ft 500 kts 155°
2026-04-30 09:33 48.28406 18.79440 39346 ft 499 kts 155°
2026-04-30 09:34 48.22044 18.83507 39344 ft 499 kts 155°
2026-04-30 09:34 48.15679 18.87568 39342 ft 500 kts 155°
2026-04-30 09:35 48.09305 18.91624 39350 ft 500 kts 155°
2026-04-30 09:35 48.02937 18.95662 39332 ft 501 kts 155°
2026-04-30 09:36 47.96555 18.99700 39330 ft 500 kts 155°
2026-04-30 09:36 47.90134 19.03752 39337 ft 500 kts 156°
2026-04-30 09:37 47.83738 19.07777 39332 ft 500 kts 156°
2026-04-30 09:37 47.77356 19.11780 39339 ft 500 kts 156°
2026-04-30 09:38 47.70960 19.15783 39344 ft 500 kts 156°
2026-04-30 09:38 47.64600 19.19753 39342 ft 500 kts 156°
2026-04-30 09:39 47.58215 19.23729 39347 ft 499 kts 156°
2026-04-30 09:39 47.51799 19.27712 39353 ft 500 kts 156°
2026-04-30 09:40 47.45430 19.31658 39354 ft 500 kts 156°
2026-04-30 09:40 47.39030 19.35609 39351 ft 500 kts 156°
2026-04-30 09:41 47.32602 19.39566 39344 ft 500 kts 156°
2026-04-30 09:41 47.26227 19.43483 39342 ft 499 kts 156°
2026-04-30 09:42 47.19803 19.47420 39340 ft 500 kts 157°
2026-04-30 09:42 47.13433 19.51314 39341 ft 500 kts 157°
2026-04-30 09:43 47.07040 19.55210 39334 ft 500 kts 157°
2026-04-30 09:43 47.00611 19.59118 39333 ft 500 kts 157°
2026-04-30 09:44 46.94235 19.62983 39335 ft 499 kts 157°
2026-04-30 09:44 46.87817 19.66867 39334 ft 499 kts 158°
2026-04-30 09:45 46.81428 19.70722 39335 ft 499 kts 158°
2026-04-30 09:45 46.75033 19.74568 39331 ft 499 kts 158°
2026-04-30 09:46 46.68607 19.78423 39327 ft 500 kts 158°
2026-04-30 09:46 46.62218 19.82249 39326 ft 500 kts 158°
2026-04-30 09:47 46.55809 19.86078 39325 ft 499 kts 158°
2026-04-30 09:47 46.49398 19.89896 39322 ft 499 kts 158°
2026-04-30 09:48 46.42995 19.93700 39321 ft 499 kts 158°
2026-04-30 09:48 46.36610 19.97486 39321 ft 499 kts 159°
2026-04-30 09:49 46.30172 20.01294 39309 ft 499 kts 159°
2026-04-30 09:49 46.23768 20.05071 39313 ft 499 kts 159°
2026-04-30 09:50 46.17366 20.08827 39307 ft 499 kts 160°
2026-04-30 09:50 46.10867 20.12091 39295 ft 499 kts 162°
2026-04-30 09:51 46.04282 20.15277 39296 ft 499 kts 162°
2026-04-30 09:51 45.97739 20.18442 39299 ft 499 kts 162°
2026-04-30 09:52 45.91154 20.21618 39306 ft 499 kts 162°
2026-04-30 09:52 45.84580 20.24784 39304 ft 499 kts 163°
2026-04-30 09:53 45.78023 20.27931 39304 ft 499 kts 163°
2026-04-30 09:53 45.71447 20.31081 39290 ft 499 kts 163°
2026-04-30 09:54 45.64905 20.34205 39288 ft 499 kts 163°
2026-04-30 09:54 45.58327 20.37342 39288 ft 499 kts 163°
2026-04-30 09:55 45.51757 20.40466 39285 ft 499 kts 163°
2026-04-30 09:55 45.45221 20.43566 39287 ft 499 kts 163°
2026-04-30 09:56 45.38655 20.46672 39287 ft 499 kts 163°
2026-04-30 09:56 45.32090 20.49770 39283 ft 499 kts 163°
2026-04-30 09:57 45.25510 20.52868 39281 ft 499 kts 163°
2026-04-30 09:57 45.18955 20.55947 39280 ft 498 kts 163°
2026-04-30 09:58 45.12406 20.59016 39282 ft 498 kts 163°
2026-04-30 09:58 45.05799 20.62105 39282 ft 498 kts 163°
2026-04-30 09:59 44.92685 20.68214 39286 ft 498 kts 165°
2026-04-30 10:00 44.82857 20.72775 39279 ft 498 kts 165°
2026-04-30 10:01 44.73042 20.77316 39279 ft 498 kts 164°
2026-04-30 10:02 44.63325 20.82400 39262 ft 497 kts 162°
2026-04-30 10:02 44.56885 20.85798 39252 ft 497 kts 162°
2026-04-30 10:03 44.50425 20.89201 39248 ft 497 kts 162°
2026-04-30 10:03 44.43967 20.92594 39248 ft 497 kts 162°
2026-04-30 10:04 44.37516 20.95977 39258 ft 497 kts 162°
2026-04-30 10:04 44.31043 20.99366 39267 ft 496 kts 162°
2026-04-30 10:05 44.24609 21.02726 39267 ft 496 kts 162°
2026-04-30 10:05 44.18160 21.06086 39268 ft 496 kts 163°
2026-04-30 10:06 44.11715 21.09436 39268 ft 496 kts 163°
2026-04-30 10:06 44.05251 21.12786 39264 ft 496 kts 163°
2026-04-30 10:07 43.98814 21.16119 39268 ft 496 kts 163°
2026-04-30 10:07 43.92357 21.19451 39281 ft 496 kts 163°
2026-04-30 10:08 43.85925 21.22758 39273 ft 495 kts 163°
2026-04-30 10:08 43.79468 21.26076 39268 ft 495 kts 163°
2026-04-30 10:09 43.73045 21.29369 39277 ft 495 kts 163°
2026-04-30 10:09 43.66611 21.32659 39271 ft 495 kts 163°
2026-04-30 10:10 43.60192 21.35935 39259 ft 494 kts 163°
2026-04-30 10:10 43.53741 21.39219 39251 ft 494 kts 163°
2026-04-30 10:11 43.47296 21.42491 39255 ft 494 kts 163°
2026-04-30 10:11 43.40868 21.45749 39248 ft 493 kts 163°
2026-04-30 10:12 43.34472 21.48983 39253 ft 493 kts 163°
2026-04-30 10:12 43.28053 21.52221 39246 ft 493 kts 164°
2026-04-30 10:13 43.21629 21.55456 39248 ft 493 kts 163°
2026-04-30 10:13 43.15197 21.58687 39241 ft 492 kts 163°
2026-04-30 10:14 43.08787 21.61900 39233 ft 493 kts 163°
2026-04-30 10:14 42.99178 21.66706 39223 ft 492 kts 165°
2026-04-30 10:15 42.92743 21.69860 39235 ft 491 kts 165°
2026-04-30 10:15 42.86278 21.72871 39227 ft 491 kts 166°
2026-04-30 10:16 42.79843 21.75857 39198 ft 491 kts 166°
2026-04-30 10:17 42.70188 21.80352 39180 ft 490 kts 166°
2026-04-30 10:17 42.60510 21.84847 39195 ft 489 kts 166°
2026-04-30 10:18 42.54106 21.87817 39152 ft 489 kts 166°
2026-04-30 10:19 42.44452 21.92275 39200 ft 489 kts 166°
2026-04-30 10:19 42.38059 21.95225 39192 ft 488 kts 166°
2026-04-30 10:20 42.31643 21.98174 39169 ft 487 kts 167°
2026-04-30 10:20 42.22042 22.02576 39121 ft 487 kts 167°
2026-04-30 10:21 42.15675 22.05489 39131 ft 486 kts 167°
2026-04-30 10:21 42.09278 22.08410 39126 ft 486 kts 167°
2026-04-30 10:22 42.02916 22.11305 39128 ft 486 kts 167°
2026-04-30 10:22 41.96520 22.14214 39116 ft 485 kts 167°
2026-04-30 10:23 41.90137 22.17109 39089 ft 485 kts 167°
2026-04-30 10:23 41.83743 22.20004 39104 ft 485 kts 167°
2026-04-30 10:24 41.77412 22.22863 39087 ft 484 kts 167°
2026-04-30 10:24 41.71045 22.25732 39090 ft 484 kts 167°
2026-04-30 10:25 41.64645 22.28608 39098 ft 484 kts 167°
2026-04-30 10:25 41.58283 22.31465 39069 ft 484 kts 167°
2026-04-30 10:26 41.51910 22.34321 39068 ft 483 kts 167°
2026-04-30 10:26 41.45580 22.37150 39084 ft 483 kts 167°
2026-04-30 10:27 41.39202 22.39999 39069 ft 483 kts 167°
2026-04-30 10:27 41.32851 22.42826 39057 ft 483 kts 167°
2026-04-30 10:28 41.26469 22.45664 39078 ft 483 kts 167°
2026-04-30 10:28 41.20150 22.48466 39066 ft 482 kts 167°
2026-04-30 10:29 41.13803 22.51471 39060 ft 485 kts 163°
2026-04-30 10:29 41.07726 22.55311 39077 ft 489 kts 157°
2026-04-30 10:30 41.01770 22.59567 39067 ft 488 kts 157°
2026-04-30 10:30 40.95822 22.63806 39030 ft 488 kts 156°
2026-04-30 10:31 40.89823 22.68062 39032 ft 488 kts 157°
2026-04-30 10:31 40.83895 22.72258 39033 ft 487 kts 157°
2026-04-30 10:32 40.77944 22.76461 39035 ft 487 kts 157°
2026-04-30 10:32 40.71970 22.80668 39027 ft 487 kts 157°
2026-04-30 10:33 40.66011 22.84861 39042 ft 486 kts 157°
2026-04-30 10:33 40.60044 22.89051 39031 ft 486 kts 157°
2026-04-30 10:34 40.54073 22.93236 39039 ft 487 kts 157°
2026-04-30 10:34 40.48108 22.97395 39036 ft 486 kts 158°
2026-04-30 10:35 40.41991 23.00958 39035 ft 481 kts 165°
2026-04-30 10:35 40.35777 23.04042 39036 ft 481 kts 165°
2026-04-30 10:36 40.29535 23.07140 39036 ft 481 kts 164°
2026-04-30 10:36 40.23295 23.10240 39036 ft 481 kts 164°
2026-04-30 10:37 40.17029 23.13349 39035 ft 480 kts 165°
2026-04-30 10:37 40.10807 23.16425 39031 ft 481 kts 164°
2026-04-30 10:38 40.04541 23.19514 39036 ft 481 kts 165°
2026-04-30 10:38 39.98316 23.22581 39034 ft 481 kts 164°
2026-04-30 10:39 39.92023 23.25676 39028 ft 482 kts 164°
2026-04-30 10:39 39.85766 23.28747 39030 ft 481 kts 164°
2026-04-30 10:40 39.79554 23.31791 39028 ft 481 kts 164°
2026-04-30 10:40 39.73230 23.34600 39025 ft 478 kts 169°
2026-04-30 10:41 39.66809 23.36501 39021 ft 477 kts 174°
2026-04-30 10:41 39.60294 23.38136 39018 ft 478 kts 174°
2026-04-30 10:42 39.53770 23.39780 39018 ft 478 kts 174°
2026-04-30 10:42 39.47257 23.41423 39014 ft 478 kts 174°
2026-04-30 10:43 39.40728 23.43066 39022 ft 478 kts 174°
2026-04-30 10:43 39.34195 23.44708 39022 ft 478 kts 174°
2026-04-30 10:44 39.27698 23.46337 39023 ft 478 kts 174°
2026-04-30 10:44 39.21197 23.47964 39022 ft 478 kts 174°
2026-04-30 10:45 39.14673 23.49594 39020 ft 478 kts 174°
2026-04-30 10:45 39.08156 23.51219 39017 ft 478 kts 174°
2026-04-30 10:46 39.01639 23.52841 39016 ft 477 kts 174°
2026-04-30 10:46 38.95124 23.54461 39012 ft 477 kts 174°
2026-04-30 10:47 38.88617 23.56076 39005 ft 477 kts 174°
2026-04-30 10:47 38.82087 23.57693 39017 ft 477 kts 174°
2026-04-30 10:48 38.75576 23.59301 39007 ft 477 kts 174°
2026-04-30 10:48 38.69049 23.60912 39015 ft 478 kts 174°
2026-04-30 10:49 38.62546 23.62514 39005 ft 477 kts 174°
2026-04-30 10:49 38.56058 23.64108 39012 ft 478 kts 174°
2026-04-30 10:50 38.49545 23.65704 38996 ft 478 kts 175°
2026-04-30 10:50 38.43022 23.67301 39004 ft 477 kts 175°
2026-04-30 10:51 38.36510 23.68894 39009 ft 477 kts 175°
2026-04-30 10:51 38.30001 23.70481 39008 ft 477 kts 175°
2026-04-30 10:52 38.23489 23.72067 39010 ft 477 kts 175°
2026-04-30 10:52 38.16936 23.73660 39010 ft 478 kts 175°
2026-04-30 10:53 38.10452 23.75235 39006 ft 478 kts 175°
2026-04-30 10:53 38.03909 23.76820 39014 ft 479 kts 175°
2026-04-30 10:54 37.97371 23.78402 39012 ft 479 kts 175°
2026-04-30 10:54 37.90838 23.80194 39007 ft 482 kts 171°
2026-04-30 10:55 37.84412 23.82414 39004 ft 482 kts 170°
2026-04-30 10:55 37.77923 23.84662 38997 ft 482 kts 170°
2026-04-30 10:56 37.71441 23.86870 38999 ft 483 kts 171°
2026-04-30 10:56 37.64970 23.89054 38627 ft 484 kts 171°
2026-04-30 10:57 37.61721 23.90146 37851 ft 490 kts 171°
2026-04-30 10:57 37.58424 23.91250 36983 ft 494 kts 170°
2026-04-30 10:57 37.55114 23.92361 36274 ft 494 kts 170°
2026-04-30 10:57 37.51809 23.93471 35763 ft 492 kts 170°
2026-04-30 10:58 37.48499 23.94582 35229 ft 491 kts 170°
2026-04-30 10:58 37.45250 23.95671 34663 ft 490 kts 170°
2026-04-30 10:58 37.41921 23.96785 33975 ft 490 kts 169°
2026-04-30 10:58 37.38638 23.97882 33191 ft 491 kts 169°
2026-04-30 10:59 37.35350 23.98979 32349 ft 493 kts 169°
2026-04-30 10:59 37.32047 24.00081 31474 ft 495 kts 169°
2026-04-30 10:59 37.28725 24.01188 30583 ft 497 kts 169°
2026-04-30 10:59 37.25383 24.02300 29702 ft 500 kts 169°
2026-04-30 11:00 37.22005 24.03424 28891 ft 500 kts 169°
2026-04-30 11:00 37.18695 24.04525 28185 ft 499 kts 169°
2026-04-30 11:00 37.15335 24.05643 27471 ft 497 kts 168°
2026-04-30 11:00 37.12027 24.06742 26954 ft 491 kts 168°
2026-04-30 11:01 37.08738 24.07835 26533 ft 483 kts 168°
2026-04-30 11:01 37.05529 24.08901 26092 ft 477 kts 168°
2026-04-30 11:01 37.02365 24.09949 25660 ft 471 kts 168°
2026-04-30 11:01 36.99197 24.10998 25211 ft 465 kts 168°
2026-04-30 11:02 36.96117 24.12015 24766 ft 460 kts 168°
2026-04-30 11:02 36.93020 24.13037 24312 ft 455 kts 168°
2026-04-30 11:02 36.90005 24.14031 23874 ft 450 kts 168°
2026-04-30 11:02 36.86978 24.15029 23428 ft 446 kts 167°
2026-04-30 11:03 36.83964 24.16022 22990 ft 441 kts 167°
2026-04-30 11:03 36.81028 24.16989 22557 ft 437 kts 167°
2026-04-30 11:03 36.78091 24.17957 22112 ft 433 kts 167°
2026-04-30 11:04 36.72322 24.19853 21242 ft 427 kts 167°
2026-04-30 11:04 36.69474 24.20788 20805 ft 424 kts 168°
2026-04-30 11:04 36.66633 24.21652 20349 ft 420 kts 167°
2026-04-30 11:04 36.63811 24.22613 19535 ft 426 kts 168°
2026-04-30 11:05 36.60903 24.23012 18964 ft 419 kts 185°
2026-04-30 11:05 36.57988 24.22856 18417 ft 419 kts 180°
2026-04-30 11:05 36.55117 24.23437 17821 ft 422 kts 168°
2026-04-30 11:05 36.52281 24.24365 17334 ft 420 kts 166°
2026-04-30 11:06 36.49470 24.25343 16853 ft 417 kts 166°
2026-04-30 11:06 36.46731 24.26305 16373 ft 414 kts 166°
2026-04-30 11:06 36.43944 24.27284 15894 ft 411 kts 166°
2026-04-30 11:06 36.41226 24.28240 15422 ft 408 kts 166°
2026-04-30 11:07 36.38496 24.29201 14947 ft 405 kts 166°
2026-04-30 11:07 36.35791 24.30153 14481 ft 403 kts 166°
2026-04-30 11:07 36.33111 24.31095 14008 ft 400 kts 166°
2026-04-30 11:07 36.30456 24.32025 13550 ft 397 kts 166°
2026-04-30 11:08 36.27802 24.32953 13101 ft 394 kts 166°
2026-04-30 11:08 36.25184 24.33865 12646 ft 392 kts 166°
2026-04-30 11:08 36.22565 24.34777 12198 ft 389 kts 166°
2026-04-30 11:08 36.19970 24.35677 11761 ft 386 kts 166°
2026-04-30 11:09 36.17395 24.36520 11350 ft 380 kts 171°
2026-04-30 11:09 36.14799 24.36813 11164 ft 368 kts 179°
2026-04-30 11:09 36.12279 24.36917 10995 ft 358 kts 180°
2026-04-30 11:09 36.09810 24.37010 10827 ft 349 kts 180°
2026-04-30 11:10 36.07413 24.37123 10665 ft 340 kts 179°
2026-04-30 11:10 36.05111 24.37254 10514 ft 331 kts 179°
2026-04-30 11:10 36.02826 24.37399 10367 ft 323 kts 179°
2026-04-30 11:10 36.00588 24.37548 10221 ft 316 kts 179°
2026-04-30 11:11 35.98438 24.37698 10083 ft 308 kts 179°
2026-04-30 11:11 35.96305 24.37847 9950 ft 301 kts 179°
2026-04-30 11:11 35.94251 24.37992 9803 ft 295 kts 179°
2026-04-30 11:11 35.92192 24.38137 9559 ft 293 kts 179°
2026-04-30 11:12 35.90167 24.38281 9291 ft 292 kts 178°
2026-04-30 11:12 35.88139 24.38425 9025 ft 290 kts 178°
2026-04-30 11:12 35.86148 24.38568 8757 ft 289 kts 179°
2026-04-30 11:12 35.84143 24.38711 8484 ft 288 kts 179°
2026-04-30 11:13 35.82130 24.38854 8222 ft 287 kts 178°
2026-04-30 11:13 35.80161 24.38995 7957 ft 285 kts 178°
2026-04-30 11:13 35.78169 24.39138 7646 ft 283 kts 179°
2026-04-30 11:13 35.76204 24.39277 7222 ft 282 kts 178°
2026-04-30 11:14 35.74255 24.39415 6837 ft 279 kts 178°
2026-04-30 11:14 35.72340 24.39552 6433 ft 277 kts 178°
2026-04-30 11:14 35.70428 24.39689 6137 ft 270 kts 178°
2026-04-30 11:14 35.68578 24.39822 5926 ft 261 kts 178°
2026-04-30 11:15 35.66790 24.39951 5745 ft 253 kts 178°
2026-04-30 11:15 35.65054 24.40074 5564 ft 246 kts 178°
2026-04-30 11:15 35.63379 24.40194 5360 ft 240 kts 178°
2026-04-30 11:15 35.61731 24.40311 5165 ft 231 kts 178°
2026-04-30 11:16 35.60165 24.40456 4956 ft 224 kts 173°
2026-04-30 11:16 35.58646 24.40746 4802 ft 218 kts 172°
2026-04-30 11:16 35.57132 24.40980 4639 ft 215 kts 180°
2026-04-30 11:16 35.55653 24.40894 4464 ft 210 kts 189°
2026-04-30 11:17 35.54245 24.40495 4225 ft 208 kts 200°
2026-04-30 11:17 35.52941 24.39815 4030 ft 202 kts 210°
2026-04-30 11:17 35.51772 24.38893 3860 ft 196 kts 219°
2026-04-30 11:17 35.50769 24.37773 3649 ft 193 kts 229°
2026-04-30 11:18 35.49945 24.36493 3415 ft 192 kts 237°
2026-04-30 11:18 35.48854 24.33572 2913 ft 182 kts 255°
2026-04-30 11:18 35.48613 24.32085 2666 ft 177 kts 263°
2026-04-30 11:19 35.48553 24.30620 2474 ft 170 kts 271°
2026-04-30 11:19 35.48658 24.29223 2327 ft 160 kts 279°
2026-04-30 11:19 35.48901 24.27923 2191 ft 149 kts 286°
2026-04-30 11:19 35.49254 24.26728 2191 ft 150 kts 290°
2026-04-30 11:20 35.49641 24.25540 2144 ft 149 kts 291°
2026-04-30 11:20 35.50021 24.24374 2027 ft 145 kts 291°
2026-04-30 11:20 35.50396 24.23236 1867 ft 145 kts 293°
2026-04-30 11:20 35.50845 24.22139 1636 ft 145 kts 294°
2026-04-30 11:21 35.51232 24.21002 1392 ft 144 kts 290°
2026-04-30 11:21 35.51594 24.19858 1095 ft 146 kts 291°
2026-04-30 11:21 35.51971 24.18707 833 ft 143 kts 291°
2026-04-30 11:21 35.52330 24.17580 625 ft 141 kts 291°
2026-04-30 11:22 35.52684 24.16478 495 ft 137 kts 291°
2026-04-30 11:22 35.52989 24.15541 474 ft 99 kts 290°
2026-04-30 11:22 35.53203 24.14874 464 ft 70 kts 290°
2026-04-30 11:22 35.53363 24.14378 460 ft 56 kts 291°
2026-04-30 11:23 35.53499 24.13965 458 ft 48 kts 291°
2026-04-30 11:23 35.53606 24.13631 453 ft 27 kts 291°
2026-04-30 11:23 35.53708 24.13454 446 ft 11 kts 12°
2026-04-30 11:24 35.53783 24.13489 445 ft 7 kts 22°
2026-04-30 11:24 35.53813 24.13541 445 ft 8 kts 87°
2026-04-30 11:24 35.53802 24.13603 447 ft 6 kts 109°
2026-04-30 11:25 35.53775 24.13687 451 ft 5 kts 112°
2026-04-30 11:25 35.53760 24.13733 452 ft 6 kts 111°
2026-04-30 11:25 35.53819 24.13830 451 ft 10 kts 34°
2026-04-30 11:26 35.53852 24.13931 450 ft 7 kts 40°
2026-04-30 11:26 35.53884 24.13949 449 ft 3 kts 20°
2026-04-30 11:26 35.53891 24.13952 449 ft 0 kts 20°